STARLINK-1141 (45051 NORAD) Tracking and Keplerian Element Data

This shows tracking and keplerian element data for the satellite.

Feedback or suggestion? Click here.




ElementValue
Catalog45051
NameSTARLINK-1141
Epoch Orbit175
Epoch Day189.91668981
Epoch Year2020
RAAN222.6767
Inclination52.999
Eccentricity8.95E-05
Argument of Perigee107.2689
Mean Anonmoly93.9894
Mean Motion15.05580369
Decay Rate0.00029185
L11 45051U 20006H 20189.91668981 .00029185 00000-0 20139-2 0 9993
L22 45051 52.9990 222.6767 0000895 107.2689 93.9894 15.05580369 1755

Live tracking and technical data element details for STARLINK-1141 (NORAD 45051). STARLINK-1141 can be tracked NOW for your location showing map with azimuth and elevation plus other details from your city location.

Track the satellite on the map from your city or location and see movement details for azimuth, elevation, latitude, longitude, range, height, and movement on the map or in text.







IsCatalogInMostPopularTable: catalog: 45051, numindb: 28
Update: records affected: 1



GetName: 45051 STARLINK-1141

Hit Count: updated at: Thu, 09 Jul 2020 01:10:09 GMT